Home > Weather > Da Nang > Past weeks

Flag for Vietnam Past Weather in Da Nang, Vietnam — Yesterday and Last 2 Weeks

Now
81 °F

Passing clouds.


Feels Like: 87 °F
Forecast: 80 / 94 °F
Wind: 2 mph from Southwest

Location: Da Nang Airport

Current Time: Jul 2, 2016 at 5:40:38 AM

Latest Report: Jul 2, 2016 at 5:00 AM


Visibility: N/A

Pressure: 29.74 "Hg

Humidity: 89%

Dew Point: 77 °F

Location of Da NangLocation

Past Weather in Da Nang — Graph

°F

Da Nang Temperature Yesterday

Maximum temperature yesterday: 99 °F (at 12:30 PM)
Minimum temperature yesterday: 79 °F (at 4:30 AM)
Average temperature yesterday: 87 °F

High & Low Weather Summary for the Past Weeks

 TemperatureHumidityPressure
High99 °F (Jun 30, 12:00 PM)100% (Jun 26, 6:00 AM)29.86 "Hg (Jun 26, 6:00 AM)
Low77 °F (Jun 17, 4:00 AM)44% (Jun 30, 12:30 PM)29.62 "Hg (Jun 27, 2:00 PM)
Average85 °F78%29.74 "Hg
* Reported Jun 17 4:00 AM — Jul 2 4:30 AM, Da Nang, Weather by CustomWeather, © 2016

Note: Actual official high and low records may vary slightly from our data, if they occured in-between our weather recording intervals... More about our weather records

Advertising

Da Nang Weather History for the Previous 24 Hours

Scroll right to see more
 ConditionsComfort  
Time TempWeatherWind HumidityBarometerVisibility
4:30 AM
Sat, Jul 2
81 °FPassing clouds.1 mph89%29.74 "HgN/A
4:00 AM81 °FPassing clouds.No wind89%29.74 "HgN/A
3:30 AM81 °FPassing clouds.1 mph94%29.74 "HgN/A
3:00 AM81 °FPassing clouds.2 mph94%29.74 "HgN/A
2:30 AM82 °FPassing clouds.1 mph89%29.74 "HgN/A
2:00 AM82 °FPassing clouds.1 mph84%29.74 "HgN/A
1:30 AM82 °FPassing clouds.No wind84%29.74 "HgN/A
1:00 AM82 °FPassing clouds.1 mph84%29.74 "HgN/A
12:30 AM82 °FPassing clouds.1 mph84%29.74 "HgN/A
12:00 AM82 °FPassing clouds.No wind89%29.74 "HgN/A
11:30 PM
Fri, Jul 1
84 °FPassing clouds.No wind84%29.74 "HgN/A
11:00 PM84 °FPassing clouds.1 mph89%29.77 "HgN/A
10:30 PM84 °FPassing clouds.1 mph89%29.77 "HgN/A
10:00 PM84 °FPassing clouds.1 mph89%29.77 "HgN/A
9:30 PM86 °FPassing clouds.No wind84%29.77 "HgN/A
9:00 PM86 °FPassing clouds.2 mph84%29.77 "HgN/A
8:30 PM86 °FPassing clouds.3 mph84%29.74 "HgN/A
8:00 PM86 °FPassing clouds.2 mph79%29.74 "HgN/A
7:30 PM86 °FPassing clouds.6 mph79%29.74 "HgN/A
7:00 PM86 °FPassing clouds.5 mph79%29.71 "HgN/A
6:30 PM88 °FPassing clouds.5 mph75%29.71 "HgN/A
6:00 PM88 °FScattered clouds.7 mph70%29.68 "HgN/A
5:30 PM90 °FScattered clouds.8 mph71%29.68 "HgN/A
5:00 PM91 °FScattered clouds.6 mph59%29.68 "HgN/A
4:30 PM90 °FScattered clouds.8 mph71%29.68 "HgN/A
4:00 PM91 °FScattered clouds.8 mph63%29.68 "HgN/A
3:00 PM93 °FScattered clouds.10 mph56%29.68 "HgN/A
2:30 PM93 °FScattered clouds.12 mph56%29.68 "HgN/A
2:00 PM93 °FScattered clouds.13 mph63%29.68 "HgN/A
1:30 PM93 °FScattered clouds.14 mph63%29.71 "HgN/A
1:00 PM99 °FScattered clouds.9 mph44%29.71 "HgN/A
12:30 PM99 °FScattered clouds.8 mph47%29.71 "HgN/A
12:00 PM97 °FScattered clouds.8 mph50%29.74 "HgN/A
11:30 AM97 °FScattered clouds.8 mph47%29.74 "HgN/A
11:00 AM97 °FScattered clouds.9 mph47%29.74 "HgN/A
10:30 AM95 °FScattered clouds.10 mph50%29.77 "HgN/A
10:00 AM95 °FScattered clouds.6 mph53%29.77 "HgN/A
9:30 AM93 °FScattered clouds.6 mph59%29.77 "HgN/A
9:00 AM93 °FScattered clouds.5 mph59%29.77 "HgN/A
8:30 AM91 °FScattered clouds.3 mph63%29.77 "HgN/A
8:00 AM90 °FPartly sunny.5 mph67%29.77 "HgN/A
7:30 AM88 °FPartly sunny.5 mph66%29.77 "HgN/A
7:00 AM84 °FPartly sunny.6 mph74%29.74 "HgN/A
6:30 AM81 °FPartly sunny.5 mph84%29.74 "HgN/A
6:00 AM81 °FPartly sunny.3 mph84%29.74 "HgN/A
5:30 AM79 °FScattered clouds.1 mph89%29.74 "HgN/A
5:00 AM79 °FPassing clouds.2 mph89%29.74 "HgN/A
Weather by CustomWeather, © 2016

See weather overviewHow to use our weather pages